TimeEST,TemperatureF,Dew PointF,Humidity,Sea Level PressureIn,VisibilityMPH,Wind Direction,Wind SpeedMPH,Gust SpeedMPH,PrecipitationIn,Events,Conditions,WindDirDegrees,DateUTC
12:15 AM,28.4,28.4,100,30.26,10.0,Calm,Calm,-,N/A,,Clear,0,2012-12-15 05:15:00
12:35 AM,28.4,28.4,100,30.26,10.0,Calm,Calm,-,N/A,,Clear,0,2012-12-15 05:35:00
12:55 AM,30.2,28.4,93,30.27,10.0,Calm,Calm,-,N/A,,Clear,0,2012-12-15 05:55:00
1:15 AM,30.2,28.4,93,30.27,10.0,Calm,Calm,-,N/A,,Clear,0,2012-12-15 06:15:00
1:35 AM,30.2,28.4,93,30.26,10.0,Calm,Calm,-,N/A,,Clear,0,2012-12-15 06:35:00
1:55 AM,30.2,28.4,93,30.27,10.0,Calm,Calm,-,N/A,,Clear,0,2012-12-15 06:55:00
2:15 AM,30.2,30.2,100,30.26,10.0,Calm,Calm,-,N/A,,Clear,0,2012-12-15 07:15:00
2:35 AM,30.2,30.2,100,30.26,10.0,Calm,Calm,-,N/A,,Clear,0,2012-12-15 07:35:00
2:55 AM,30.2,30.2,100,30.26,10.0,Calm,Calm,-,N/A,,Clear,0,2012-12-15 07:55:00
3:15 AM,32.0,30.2,93,30.26,10.0,Calm,Calm,-,N/A,,Clear,0,2012-12-15 08:15:00
3:35 AM,32.0,32.0,100,30.25,10.0,Calm,Calm,-,N/A,,Clear,0,2012-12-15 08:35:00
3:55 AM,32.0,30.2,93,30.24,10.0,Calm,Calm,-,N/A,,Clear,0,2012-12-15 08:55:00
4:15 AM,32.0,30.2,93,30.22,10.0,Calm,Calm,-,N/A,,Clear,0,2012-12-15 09:15:00
4:35 AM,32.0,30.2,93,30.22,10.0,Calm,Calm,-,N/A,,Clear,0,2012-12-15 09:35:00
4:55 AM,32.0,30.2,93,30.22,10.0,Calm,Calm,-,N/A,,Clear,0,2012-12-15 09:55:00
5:15 AM,32.0,30.2,93,30.22,10.0,Calm,Calm,-,N/A,,Clear,0,2012-12-15 10:15:00
5:35 AM,32.0,30.2,93,30.23,10.0,Calm,Calm,-,N/A,,Clear,0,2012-12-15 10:35:00
5:55 AM,32.0,32.0,100,30.24,10.0,Calm,Calm,-,N/A,,Clear,0,2012-12-15 10:55:00
6:15 AM,32.0,32.0,100,30.25,10.0,Calm,Calm,-,N/A,,Clear,0,2012-12-15 11:15:00
6:35 AM,32.0,32.0,100,30.25,10.0,Calm,Calm,-,N/A,,Clear,0,2012-12-15 11:35:00
6:55 AM,32.0,30.2,93,30.26,10.0,Calm,Calm,-,N/A,,Clear,0,2012-12-15 11:55:00
7:15 AM,32.0,32.0,100,30.27,10.0,Calm,Calm,-,N/A,,Clear,0,2012-12-15 12:15:00
7:35 AM,32.0,32.0,100,30.27,10.0,Calm,Calm,-,N/A,,Clear,0,2012-12-15 12:35:00
7:55 AM,32.0,32.0,100,30.27,10.0,Calm,Calm,-,N/A,,Clear,0,2012-12-15 12:55:00
8:15 AM,32.0,32.0,100,30.27,10.0,Calm,Calm,-,N/A,,Clear,0,2012-12-15 13:15:00
8:35 AM,32.0,32.0,100,30.27,10.0,Calm,Calm,-,N/A,,Clear,0,2012-12-15 13:35:00
8:55 AM,33.8,33.8,100,30.27,10.0,Calm,Calm,-,N/A,,Clear,0,2012-12-15 13:55:00
9:15 AM,35.6,33.8,93,30.27,10.0,Calm,Calm,-,N/A,,Clear,0,2012-12-15 14:15:00
9:35 AM,35.6,35.6,100,30.27,10.0,Calm,Calm,-,N/A,,Clear,0,2012-12-15 14:35:00
9:55 AM,39.2,35.6,87,30.27,10.0,Calm,Calm,-,N/A,,Clear,0,2012-12-15 14:55:00
10:15 AM,41.0,35.6,81,30.27,10.0,Calm,Calm,-,N/A,,Clear,0,2012-12-15 15:15:00
10:35 AM,42.8,37.4,81,30.28,10.0,Calm,Calm,-,N/A,,Clear,0,2012-12-15 15:35:00
10:55 AM,42.8,35.6,76,30.29,10.0,Calm,Calm,-,N/A,,Clear,0,2012-12-15 15:55:00
11:15 AM,44.6,35.6,71,30.27,10.0,Calm,Calm,-,N/A,,Clear,0,2012-12-15 16:15:00
11:35 AM,48.2,33.8,58,30.26,10.0,Calm,Calm,-,N/A,,Clear,0,2012-12-15 16:35:00
11:55 AM,50.0,32.0,50,30.25,10.0,Calm,Calm,-,N/A,,Clear,0,2012-12-15 16:55:00
12:15 PM,51.8,30.2,44,30.24,10.0,South,5.8,-,N/A,,Clear,180,2012-12-15 17:15:00
12:35 PM,51.8,30.2,44,30.22,10.0,South,4.6,-,N/A,,Clear,180,2012-12-15 17:35:00
12:55 PM,53.6,30.2,41,30.21,10.0,SSE,4.6,-,N/A,,Clear,150,2012-12-15 17:55:00
1:15 PM,53.6,28.4,38,30.20,10.0,ESE,3.5,-,N/A,,Clear,120,2012-12-15 18:15:00
1:35 PM,53.6,30.2,41,30.19,10.0,South,4.6,-,N/A,,Clear,190,2012-12-15 18:35:00
1:55 PM,55.4,30.2,38,30.19,10.0,SSE,5.8,-,N/A,,Clear,150,2012-12-15 18:55:00
2:15 PM,53.6,30.2,41,30.18,10.0,SSE,6.9,-,N/A,,Clear,150,2012-12-15 19:15:00
2:35 PM,53.6,28.4,38,30.17,10.0,SSE,3.5,-,N/A,,Clear,150,2012-12-15 19:35:00
2:55 PM,55.4,30.2,38,30.18,10.0,SSE,5.8,-,N/A,,Clear,150,2012-12-15 19:55:00
3:15 PM,53.6,28.4,38,30.17,10.0,South,8.1,-,N/A,,Clear,180,2012-12-15 20:15:00
3:35 PM,53.6,28.4,38,30.17,10.0,SSE,5.8,-,N/A,,Clear,150,2012-12-15 20:35:00
3:55 PM,53.6,30.2,41,30.17,10.0,SSE,6.9,-,N/A,,Clear,160,2012-12-15 20:55:00
4:15 PM,53.6,32.0,44,30.17,10.0,SSE,4.6,-,N/A,,Clear,160,2012-12-15 21:15:00
4:35 PM,51.8,32.0,47,30.17,10.0,SSE,3.5,-,N/A,,Clear,150,2012-12-15 21:35:00
4:55 PM,51.8,32.0,47,30.16,10.0,SE,4.6,-,N/A,,Clear,140,2012-12-15 21:55:00
5:15 PM,50.0,32.0,50,30.16,10.0,Calm,Calm,-,N/A,,Scattered Clouds,0,2012-12-15 22:15:00
5:35 PM,50.0,32.0,50,30.16,10.0,Calm,Calm,-,N/A,,Mostly Cloudy,0,2012-12-15 22:35:00
5:55 PM,50.0,32.0,50,30.16,10.0,Calm,Calm,-,N/A,,Scattered Clouds,0,2012-12-15 22:55:00
6:15 PM,50.0,32.0,50,30.15,10.0,SE,3.5,-,N/A,,Mostly Cloudy,130,2012-12-15 23:15:00
6:35 PM,50.0,32.0,50,30.16,10.0,SE,3.5,-,N/A,,Mostly Cloudy,140,2012-12-15 23:35:00
6:55 PM,50.0,32.0,50,30.15,10.0,SE,3.5,-,N/A,,Scattered Clouds,140,2012-12-15 23:55:00
7:15 PM,50.0,32.0,50,30.14,10.0,Calm,Calm,-,N/A,,Mostly Cloudy,0,2012-12-16 00:15:00
7:35 PM,50.0,32.0,50,30.15,10.0,Calm,Calm,-,N/A,,Overcast,0,2012-12-16 00:35:00
7:55 PM,50.0,32.0,50,30.16,10.0,Calm,Calm,-,N/A,,Overcast,0,2012-12-16 00:55:00
8:15 PM,48.2,32.0,54,30.14,10.0,Calm,Calm,-,N/A,,Mostly Cloudy,0,2012-12-16 01:15:00
8:35 PM,48.2,32.0,54,30.14,10.0,Calm,Calm,-,N/A,,Overcast,0,2012-12-16 01:35:00
8:55 PM,50.0,32.0,50,30.14,10.0,Calm,Calm,-,N/A,,Overcast,0,2012-12-16 01:55:00
9:15 PM,50.0,32.0,50,30.14,10.0,Calm,Calm,-,N/A,,Overcast,0,2012-12-16 02:15:00
9:35 PM,50.0,32.0,50,30.14,10.0,Calm,Calm,-,N/A,,Overcast,0,2012-12-16 02:35:00
9:55 PM,50.0,32.0,50,30.13,10.0,SSE,3.5,-,N/A,,Overcast,150,2012-12-16 02:55:00
10:15 PM,48.2,32.0,54,30.13,10.0,Calm,Calm,-,N/A,,Overcast,0,2012-12-16 03:15:00
10:35 PM,48.2,32.0,54,30.13,10.0,Calm,Calm,-,N/A,,Overcast,0,2012-12-16 03:35:00
10:55 PM,48.2,32.0,54,30.13,10.0,Calm,Calm,-,N/A,,Overcast,0,2012-12-16 03:55:00
11:15 PM,50.0,32.0,50,30.12,10.0,Calm,Calm,-,N/A,,Overcast,0,2012-12-16 04:15:00
11:35 PM,50.0,32.0,50,30.12,10.0,Calm,Calm,-,N/A,,Overcast,0,2012-12-16 04:35:00
11:55 PM,48.2,32.0,54,30.10,10.0,Calm,Calm,-,N/A,,Overcast,0,2012-12-16 04:55:00